TimeCDT,TemperatureF,Dew PointF,Humidity,Sea Level PressureIn,VisibilityMPH,Wind Direction,Wind SpeedMPH,Gust SpeedMPH,PrecipitationIn,Events,Conditions,WindDirDegrees,DateUTC
12:15 AM,66.2,62.6,88,29.99,5.0,West,9.2,15.0,N/A,Rain,Light Rain,280,2013-06-15 05:15:00
12:35 AM,66.2,62.6,88,30.01,9.0,SW,8.1,-,N/A,Rain,Light Rain,220,2013-06-15 05:35:00
12:55 AM,66.2,62.6,88,30.04,8.0,South,6.9,13.8,0.03,,Light Drizzle,190,2013-06-15 05:55:00
1:15 AM,64.4,62.6,94,30.00,5.0,SE,10.4,-,N/A,Rain,Rain,130,2013-06-15 06:15:00
1:35 AM,69.8,62.6,78,29.86,9.0,East,16.1,28.8,N/A,Rain,Light Rain,80,2013-06-15 06:35:00
1:55 AM,73.4,59.0,61,29.91,8.0,North,12.7,41.4,0.09,Rain,Light Rain,10,2013-06-15 06:55:00
2:15 AM,71.6,60.8,69,29.93,10.0,WSW,8.1,13.8,N/A,Rain,Light Rain,250,2013-06-15 07:15:00
2:35 AM,68.0,62.6,83,29.90,10.0,South,8.1,-,N/A,,Light Drizzle,170,2013-06-15 07:35:00
2:55 AM,66.2,62.6,88,29.88,10.0,SE,9.2,18.4,0.02,,Partly Cloudy,130,2013-06-15 07:55:00
3:15 AM,66.2,64.4,94,29.91,10.0,South,6.9,12.7,N/A,,Clear,180,2013-06-15 08:15:00
3:35 AM,66.2,64.4,94,29.91,10.0,SSE,4.6,-,N/A,,Clear,150,2013-06-15 08:35:00
3:55 AM,64.4,64.4,100,29.90,10.0,South,5.8,-,N/A,,Clear,190,2013-06-15 08:55:00
4:15 AM,64.4,64.4,100,29.89,10.0,SSE,5.8,-,N/A,,Clear,150,2013-06-15 09:15:00
4:35 AM,64.4,64.4,100,29.89,10.0,SSE,3.5,-,N/A,,Clear,150,2013-06-15 09:35:00
4:55 AM,64.4,64.4,100,29.89,10.0,ESE,4.6,-,N/A,,Scattered Clouds,110,2013-06-15 09:55:00
5:15 AM,64.4,64.4,100,29.89,10.0,Calm,Calm,-,N/A,,Scattered Clouds,0,2013-06-15 10:15:00
5:35 AM,64.4,62.6,94,29.89,9.0,Calm,Calm,-,N/A,,Clear,0,2013-06-15 10:35:00
5:55 AM,64.4,62.6,94,29.90,5.0,Calm,Calm,-,N/A,,Clear,0,2013-06-15 10:55:00
6:15 AM,62.6,62.6,100,29.91,0.5,Calm,Calm,-,N/A,Fog,Fog,0,2013-06-15 11:15:00
6:35 AM,62.6,62.6,100,29.92,0.8,Calm,Calm,-,N/A,,Mostly Cloudy,0,2013-06-15 11:35:00
6:55 AM,64.4,64.4,100,29.92,3.0,ESE,4.6,-,N/A,,Mostly Cloudy,110,2013-06-15 11:55:00
7:15 AM,66.2,64.4,94,29.92,6.0,SE,5.8,-,N/A,,Mostly Cloudy,140,2013-06-15 12:15:00
7:35 AM,66.2,64.4,94,29.92,9.0,SSE,6.9,-,N/A,,Scattered Clouds,160,2013-06-15 12:35:00
7:55 AM,68.0,66.2,94,29.92,10.0,SSE,8.1,-,N/A,,Clear,150,2013-06-15 12:55:00
8:15 AM,69.8,66.2,88,29.93,10.0,SSE,6.9,-,N/A,,Scattered Clouds,160,2013-06-15 13:15:00
8:35 AM,69.8,66.2,88,29.92,10.0,SSE,8.1,-,N/A,,Mostly Cloudy,150,2013-06-15 13:35:00
8:55 AM,71.6,66.2,83,29.91,10.0,SSE,16.1,-,N/A,,Partly Cloudy,150,2013-06-15 13:55:00
9:15 AM,71.6,66.2,83,29.94,10.0,South,11.5,17.3,N/A,,Clear,170,2013-06-15 14:15:00
9:35 AM,71.6,66.2,83,29.94,10.0,South,11.5,19.6,N/A,,Partly Cloudy,170,2013-06-15 14:35:00
9:55 AM,69.8,66.2,88,29.93,10.0,SSE,11.5,19.6,N/A,,Partly Cloudy,160,2013-06-15 14:55:00
10:15 AM,69.8,66.2,88,29.94,10.0,SSE,8.1,-,N/A,,Clear,160,2013-06-15 15:15:00
10:35 AM,69.8,66.2,88,29.93,10.0,SE,4.6,-,N/A,,Clear,140,2013-06-15 15:35:00
10:55 AM,69.8,66.2,88,29.93,10.0,Calm,Calm,-,N/A,,Partly Cloudy,0,2013-06-15 15:55:00
11:15 AM,69.8,66.2,88,29.94,10.0,Calm,Calm,-,N/A,,Clear,0,2013-06-15 16:15:00
11:35 AM,71.6,68.0,88,29.94,10.0,Calm,Calm,-,N/A,,Clear,0,2013-06-15 16:35:00
11:55 AM,71.6,68.0,88,29.93,10.0,SE,4.6,-,N/A,,Clear,140,2013-06-15 16:55:00
12:15 PM,73.4,68.0,83,29.95,10.0,South,4.6,-,N/A,,Clear,180,2013-06-15 17:15:00
12:35 PM,75.2,69.8,83,29.94,10.0,Calm,Calm,-,N/A,,Clear,0,2013-06-15 17:35:00
12:55 PM,75.2,68.0,78,29.93,10.0,SSE,3.5,-,N/A,,Clear,160,2013-06-15 17:55:00
1:15 PM,77.0,69.8,78,29.94,10.0,Calm,Calm,-,N/A,,Clear,0,2013-06-15 18:15:00
1:35 PM,78.8,68.0,69,29.94,10.0,West,4.6,-,N/A,,Clear,280,2013-06-15 18:35:00
1:55 PM,77.0,66.2,69,29.93,10.0,Calm,Calm,-,N/A,,Clear,0,2013-06-15 18:55:00
2:15 PM,77.0,68.0,74,29.92,10.0,NNE,4.6,-,N/A,,Clear,20,2013-06-15 19:15:00
2:35 PM,77.0,68.0,74,29.92,10.0,SE,8.1,-,N/A,,Clear,130,2013-06-15 19:35:00
2:55 PM,78.8,68.0,69,29.93,10.0,Calm,Calm,-,N/A,,Clear,0,2013-06-15 19:55:00
3:15 PM,77.0,69.8,78,29.93,10.0,NNE,4.6,-,N/A,,Clear,30,2013-06-15 20:15:00
3:35 PM,77.0,69.8,78,29.92,10.0,NNE,4.6,-,N/A,,Light Drizzle,30,2013-06-15 20:35:00
3:55 PM,78.8,69.8,74,29.88,10.0,SE,6.9,-,N/A,,Clear,130,2013-06-15 20:55:00
4:15 PM,78.8,71.6,78,29.85,10.0,SSE,9.2,-,N/A,,Clear,150,2013-06-15 21:15:00
4:35 PM,78.8,69.8,74,29.85,10.0,South,11.5,-,N/A,,Clear,190,2013-06-15 21:35:00
4:55 PM,78.8,69.8,74,29.88,10.0,SSW,12.7,-,N/A,,Clear,210,2013-06-15 21:55:00
5:15 PM,78.8,69.8,74,29.88,10.0,SSW,15.0,-,N/A,,Clear,200,2013-06-15 22:15:00
5:35 PM,78.8,71.6,78,29.87,10.0,SSW,15.0,23.0,N/A,,Clear,200,2013-06-15 22:35:00
5:55 PM,82.4,68.0,62,29.87,10.0,Variable,6.9,13.8,N/A,,Clear,0,2013-06-15 22:55:00
6:15 PM,80.6,66.2,61,29.85,10.0,West,10.4,-,N/A,,Clear,260,2013-06-15 23:15:00
6:35 PM,82.4,68.0,62,29.86,10.0,WSW,8.1,-,N/A,,Clear,250,2013-06-15 23:35:00
6:55 PM,82.4,66.2,58,29.86,10.0,West,11.5,-,N/A,,Clear,270,2013-06-15 23:55:00
7:15 PM,80.6,64.4,58,29.87,10.0,WSW,8.1,-,N/A,,Clear,250,2013-06-16 00:15:00
7:35 PM,78.8,64.4,61,29.88,10.0,WSW,6.9,-,N/A,,Clear,240,2013-06-16 00:35:00
7:55 PM,77.0,66.2,69,29.89,10.0,SSW,6.9,-,N/A,,Clear,210,2013-06-16 00:55:00
8:15 PM,77.0,66.2,69,29.91,10.0,South,9.2,-,N/A,,Clear,180,2013-06-16 01:15:00
8:35 PM,75.2,66.2,73,29.93,10.0,South,19.6,28.8,N/A,,Mostly Cloudy,180,2013-06-16 01:35:00
8:55 PM,71.6,64.4,78,29.93,10.0,South,15.0,25.3,N/A,,Scattered Clouds,190,2013-06-16 01:55:00
9:15 PM,71.6,64.4,78,29.93,10.0,South,13.8,20.7,N/A,,Clear,190,2013-06-16 02:15:00
9:35 PM,71.6,66.2,83,29.94,10.0,South,11.5,17.3,N/A,,Clear,190,2013-06-16 02:35:00
9:55 PM,69.8,66.2,88,29.93,10.0,South,13.8,-,N/A,,Clear,190,2013-06-16 02:55:00
10:15 PM,69.8,66.2,88,29.94,10.0,South,10.4,-,N/A,,Clear,180,2013-06-16 03:15:00
10:35 PM,69.8,66.2,88,29.94,10.0,South,10.4,-,N/A,,Clear,180,2013-06-16 03:35:00
10:55 PM,69.8,66.2,88,29.94,10.0,SSW,9.2,15.0,N/A,,Scattered Clouds,200,2013-06-16 03:55:00
11:15 PM,68.0,66.2,94,29.94,10.0,South,9.2,-,N/A,,Partly Cloudy,190,2013-06-16 04:15:00
11:35 PM,68.0,64.4,88,29.94,10.0,SSW,9.2,-,N/A,,Clear,210,2013-06-16 04:35:00
11:55 PM,68.0,64.4,88,29.94,10.0,SSW,5.8,-,N/A,,Partly Cloudy,210,2013-06-16 04:55:00